Weather History for KMLP - March, 2013

Change the Weather History Date:

Saturday, March 16, 2013

  Actual Average (K3TH) Record (K3TH)
Temperature  
Mean Temperature 27 °F -  
Max Temperature 30 °F 45 °F 48 °F (1997)
Min Temperature 24 °F 29 °F 34 °F (1999)
Degree Days  
Heating Degree Days 38    
Moisture  
Dew Point 28 °F    
Average Humidity 97    
Maximum Humidity 100    
Minimum Humidity 92    
Precipitation  
Precipitation 0.43 in - - ()
Sea Level Pressure  
Sea Level Pressure 29.81 in    
Wind  
Wind Speed 7 mph (SW)    
Max Wind Speed 13 mph    
Max Gust Speed 29 mph    
Visibility 2 miles    
Events Fog , Rain , Snow    
Averages and records for this station are not official NWS values.
T = Trace of Precipitation, MM = Missing Value Source: NWS Daily Summary

Daily Weather History Graph

Daily Weather History Graph

Search for Another Location

Airport or City:

Trip Planner

Search our weather history database for the weather conditions in past years. The results will help you decide how hot, cold, wet, or windy it might be!

Date:

Astronomy

Mar. 16, 2013 Rise Set
Actual Time 6:52 AM PDT 6:50 PM PDT
Civil Twilight 6:22 AM PDT 7:20 PM PDT
Nautical Twilight 5:46 AM PDT 7:56 PM PDT
Astronomical Twilight 5:10 AM PDT 8:33 PM PDT
Moon 9:04 AM PDT (3/16) No Moon Set
Length of Visible Light 12h 58m
Length of Day
11h 57m
Waxing Crescent, 24% of the Moon is Illuminated
Mar 16
Waxing Crescent
Mar 19
First Quarter
Mar 27
Full
Apr 2
Last Quarter
Apr 10
New

Hourly Weather History & Observations

Time (PDT) Temp. Windchill Dew Point Humidity Pressure Visibility Wind Dir Wind Speed Gust Speed Precip Events Conditions
12:53 AM 30.9 °F 25.2 °F 30.9 °F 100% 29.93 in 1.5 mi WSW 5.8 mph - 0.00 in Snow Light Snow
12:56 AM 30.2 °F 23.4 °F 30.2 °F 100% 30.00 in 0.8 mi Variable 6.9 mph - 0.01 in Snow Light Snow
1:26 AM 30.2 °F 24.3 °F 30.2 °F 100% 29.99 in 0.2 mi Variable 5.8 mph - 0.02 in Fog , Snow Light Snow
1:31 AM 30.2 °F 24.3 °F 30.2 °F 100% 29.99 in 1.2 mi WNW 5.8 mph - 0.03 in Snow Light Snow
1:33 AM 30.2 °F 25.4 °F 30.2 °F 100% 29.99 in 3.0 mi NW 4.6 mph - 0.03 in Snow Light Snow
1:46 AM 30.2 °F 25.4 °F 30.2 °F 100% 29.99 in 6.0 mi Variable 4.6 mph - 0.03 in Snow Light Snow
1:50 AM 30.2 °F 23.4 °F 30.2 °F 100% 29.99 in 2.5 mi Variable 6.9 mph - 0.03 in Snow Light Snow
1:53 AM 30.9 °F 25.2 °F 30.9 °F 100% 29.92 in 1.5 mi Variable 5.8 mph - 0.03 in Snow Light Snow
1:59 AM 30.2 °F 25.4 °F 30.2 °F 100% 29.99 in 0.8 mi Variable 4.6 mph - 0.00 in Snow Light Snow
2:06 AM 30.2 °F 26.7 °F 30.2 °F 100% 29.99 in 0.5 mi Variable 3.5 mph - 0.00 in Fog , Snow Light Snow
2:24 AM 30.2 °F 25.4 °F 30.2 °F 100% 29.99 in 1.5 mi Variable 4.6 mph - 0.00 in Snow Light Snow
2:26 AM 30.2 °F 25.4 °F 30.2 °F 100% 29.99 in 4.0 mi Variable 4.6 mph - 0.00 in   Overcast
2:35 AM 30.2 °F 26.7 °F 30.2 °F 100% 29.98 in 1.8 mi Variable 3.5 mph - 0.00 in   Overcast
2:43 AM 30.2 °F 24.3 °F 30.2 °F 100% 29.98 in 1.2 mi Variable 5.8 mph - 0.00 in Snow Light Snow
2:53 AM 30.9 °F 22.8 °F 30.0 °F 96% 29.90 in 5.0 mi WSW 9.2 mph - 0.00 in Snow Light Snow
3:23 AM 30.2 °F 23.4 °F 30.2 °F 100% 29.97 in 10.0 mi West 6.9 mph - 0.00 in   Overcast
3:53 AM 30.9 °F 26.2 °F 30.0 °F 96% 29.88 in 10.0 mi Variable 4.6 mph - 0.00 in   Overcast
4:23 AM 30.2 °F 21.3 °F 30.2 °F 100% 29.95 in 2.0 mi SW 10.4 mph - 0.00 in Snow Light Snow
4:25 AM 30.2 °F 21.3 °F 30.2 °F 100% 29.95 in 1.0 mi WSW 10.4 mph 19.6 mph 0.00 in Snow Light Snow
4:30 AM 30.2 °F 21.3 °F 30.2 °F 100% 29.95 in 0.2 mi WNW 10.4 mph 19.6 mph 0.01 in Fog , Snow Heavy Snow
4:46 AM 28.4 °F 21.2 °F 28.4 °F 100% 29.94 in 0.8 mi NW 6.9 mph 16.1 mph 0.02 in Snow Light Snow
4:53 AM 28.9 °F 21.9 °F 28.9 °F 100% 29.87 in 0.8 mi Variable 6.9 mph 16.1 mph 0.02 in Snow Light Snow
5:06 AM 30.2 °F 24.3 °F 28.4 °F 93% 29.94 in 1.0 mi Variable 5.8 mph - 0.00 in Snow Light Snow
5:10 AM 30.2 °F 24.3 °F 30.2 °F 100% 29.94 in 2.0 mi Variable 5.8 mph - 0.00 in Snow Light Snow
5:15 AM 30.2 °F 26.7 °F 28.4 °F 93% 29.93 in 1.2 mi Variable 3.5 mph - 0.00 in Snow Light Snow
5:24 AM 30.2 °F - 30.2 °F 100% 29.93 in - Calm Calm - 0.01 in Snow Snow
5:53 AM 30.0 °F 26.5 °F 30.0 °F 100% 29.85 in - Variable 3.5 mph - 0.02 in Snow Light Snow
6:17 AM 30.2 °F 24.3 °F 30.2 °F 100% 29.92 in 0.2 mi Variable 5.8 mph - 0.00 in Fog Light Freezing Fog
6:22 AM 30.2 °F 25.4 °F 30.2 °F 100% 29.92 in 0.5 mi Variable 4.6 mph - 0.00 in Fog Light Freezing Fog
6:53 AM 30.0 °F 26.5 °F 30.0 °F 100% 29.83 in 0.2 mi Variable 3.5 mph - 0.00 in Fog , Snow Light Snow
7:16 AM 30.2 °F 26.7 °F 28.4 °F 93% 29.91 in 0.5 mi Variable 3.5 mph - 0.00 in Fog , Snow Light Snow
7:24 AM 30.2 °F 26.7 °F 30.2 °F 100% 29.91 in - Variable 3.5 mph - 0.01 in Snow Light Snow
7:53 AM 30.0 °F - 28.9 °F 96% 29.84 in - Calm Calm - 0.02 in Snow Light Snow
8:53 AM 30.0 °F 26.5 °F 30.0 °F 100% 29.83 in - Variable 3.5 mph - 0.00 in Snow Light Snow
9:53 AM 30.0 °F 21.7 °F 30.0 °F 100% 29.81 in - SW 9.2 mph - 0.02 in Snow Light Snow
10:08 AM 30.2 °F 21.3 °F 30.2 °F 100% 29.89 in 0.2 mi SSW 10.4 mph 20.7 mph 0.01 in Fog , Snow Light Snow
10:16 AM 30.2 °F 24.3 °F 28.4 °F 93% 29.89 in 0.2 mi Variable 5.8 mph 20.7 mph 0.01 in Fog , Snow Light Snow
10:49 AM 30.2 °F 22.6 °F 28.4 °F 93% 29.88 in 0.2 mi SW 8.1 mph 18.4 mph 0.01 in Fog , Snow Light Snow
10:53 AM 30.0 °F 21.7 °F 28.9 °F 96% 29.81 in 0.5 mi SW 9.2 mph - 0.01 in Fog , Snow Light Snow
11:18 AM 30.2 °F 23.4 °F 28.4 °F 93% 29.87 in 0.2 mi Variable 6.9 mph - 0.01 in Fog , Snow Light Snow
11:43 AM 30.2 °F 21.3 °F 28.4 °F 93% 29.86 in 1.0 mi SW 10.4 mph 23.0 mph 0.02 in Snow Light Snow
11:48 AM 30.2 °F 21.3 °F 28.4 °F 93% 29.86 in 2.0 mi SW 10.4 mph 23.0 mph 0.02 in Snow Light Snow
11:53 AM 30.0 °F 23.2 °F 28.9 °F 96% 29.79 in 2.5 mi Variable 6.9 mph 21.9 mph 0.02 in Snow Light Snow
12:01 PM 28.4 °F 19.1 °F 28.4 °F 100% 29.86 in 4.0 mi SW 10.4 mph 25.3 mph 0.00 in Rain Light Freezing Rain
12:25 PM 28.4 °F 20.4 °F 28.4 °F 100% 29.86 in - West 8.1 mph 16.1 mph 0.00 in Snow Light Snow
12:45 PM 28.4 °F 19.7 °F 28.4 °F 100% 29.85 in - WSW 9.2 mph - 0.02 in Snow Light Snow
12:47 PM 28.4 °F 20.4 °F 28.4 °F 100% 29.85 in 2.0 mi WSW 8.1 mph 16.1 mph 0.02 in Snow Light Snow
12:53 PM 28.9 °F 20.4 °F 28.0 °F 96% 29.78 in 2.5 mi SW 9.2 mph 16.1 mph 0.02 in Snow Light Snow
1:01 PM 28.4 °F 20.4 °F 28.4 °F 100% 29.84 in 7.0 mi SW 8.1 mph 23.0 mph 0.00 in   Overcast
1:14 PM 28.4 °F 19.7 °F 28.4 °F 100% 29.83 in 2.5 mi SW 9.2 mph 18.4 mph 0.00 in Snow Light Snow
1:19 PM 30.2 °F 23.4 °F 28.4 °F 93% 29.83 in 1.8 mi Variable 6.9 mph 18.4 mph 0.00 in Snow Light Snow
1:25 PM 30.2 °F 24.3 °F 28.4 °F 93% 29.82 in - Variable 5.8 mph - 0.00 in Snow Light Snow
1:32 PM 30.2 °F 22.6 °F 28.4 °F 93% 29.82 in 1.2 mi SW 8.1 mph - 0.00 in Snow Light Snow
1:40 PM 28.4 °F 19.1 °F 28.4 °F 100% 29.81 in 0.5 mi SW 10.4 mph 20.7 mph 0.01 in Fog , Snow Light Snow
1:50 PM 28.4 °F 19.7 °F 28.4 °F 100% 29.81 in 0.2 mi SW 9.2 mph 19.6 mph 0.03 in Fog , Snow Snow
1:53 PM 28.9 °F 21.1 °F 28.9 °F 100% 29.74 in 0.2 mi SW 8.1 mph - 0.03 in Fog , Snow Light Snow
2:08 PM 30.2 °F 21.9 °F 28.4 °F 93% 29.80 in - SW 9.2 mph 16.1 mph 0.00 in Snow Light Snow
2:53 PM 30.0 °F 24.1 °F 28.9 °F 96% 29.69 in - Variable 5.8 mph - 0.01 in Snow Light Snow
3:53 PM 28.9 °F 20.4 °F 27.0 °F 92% 29.68 in 1.8 mi WSW 9.2 mph 23.0 mph 0.02 in Snow Light Snow
4:03 PM 28.4 °F 20.4 °F 28.4 °F 100% 29.75 in 2.0 mi SSW 8.1 mph 25.3 mph 0.00 in Snow Light Snow
4:08 PM 28.4 °F 20.4 °F 26.6 °F 93% 29.74 in 3.0 mi SW 8.1 mph 23.0 mph 0.00 in Snow Light Snow
4:15 PM 28.4 °F 18.5 °F 28.4 °F 100% 29.74 in 4.0 mi SW 11.5 mph 23.0 mph 0.00 in Snow Light Snow
4:17 PM 28.4 °F 19.1 °F 26.6 °F 93% 29.74 in 4.0 mi SW 10.4 mph 23.0 mph 0.00 in Snow Light Snow
4:24 PM 28.4 °F 19.7 °F 28.4 °F 100% 29.74 in 2.5 mi SW 9.2 mph 23.0 mph 0.00 in Snow Light Snow
4:27 PM 28.4 °F 18.5 °F 26.6 °F 93% 29.74 in 1.8 mi SW 11.5 mph 19.6 mph 0.00 in Snow Light Snow
4:34 PM 28.4 °F 22.2 °F 26.6 °F 93% 29.73 in 0.8 mi SW 5.8 mph 20.7 mph 0.01 in Snow Light Snow
4:53 PM 28.0 °F 20.0 °F 27.0 °F 96% 29.79 in 2.0 mi SW 8.1 mph 20.7 mph 0.02 in Snow Light Snow
4:58 PM 28.4 °F 20.4 °F 28.4 °F 100% 29.72 in 6.0 mi SW 8.1 mph - N/A   Overcast
5:10 PM 28.4 °F 18.0 °F 26.6 °F 93% 29.72 in 1.0 mi SW 12.7 mph 24.2 mph 0.00 in Snow Light Snow
5:13 PM 28.4 °F 20.4 °F 26.6 °F 93% 29.71 in 0.2 mi WSW 8.1 mph 24.2 mph 0.00 in Fog , Snow Heavy Snow
5:24 PM 28.4 °F 18.5 °F 26.6 °F 93% 29.71 in 0.2 mi SW 11.5 mph 25.3 mph 0.02 in Fog , Snow Heavy Snow
5:34 PM 28.4 °F 19.7 °F 26.6 °F 93% 29.71 in 1.8 mi SW 9.2 mph 27.6 mph 0.02 in Snow Light Snow
5:36 PM 28.4 °F 18.5 °F 26.6 °F 93% 29.71 in 3.0 mi SW 11.5 mph 24.2 mph 0.02 in Snow Light Snow
5:53 PM 27.0 °F 17.3 °F 26.1 °F 96% 29.78 in 5.0 mi WSW 10.4 mph 19.6 mph 0.02 in Snow Light Snow
6:05 PM 26.6 °F 16.2 °F 26.6 °F 100% 29.70 in 0.8 mi SW 11.5 mph 25.3 mph 0.01 in Snow Light Snow
6:12 PM 26.6 °F 20.0 °F 26.6 °F 100% 29.70 in 0.2 mi SW 5.8 mph 19.6 mph 0.01 in Fog , Snow Snow
6:25 PM 26.6 °F 15.7 °F 26.6 °F 100% 29.69 in - SW 12.7 mph 21.9 mph 0.02 in Snow Light Snow
6:38 PM 26.6 °F 15.7 °F 24.8 °F 93% 29.68 in 0.8 mi SW 12.7 mph 28.8 mph 0.02 in Snow Light Snow
6:44 PM 26.6 °F 17.5 °F 24.8 °F 93% 29.68 in 1.0 mi SW 9.2 mph 23.0 mph 0.02 in Snow Light Snow
6:53 PM 26.1 °F 17.6 °F 26.1 °F 100% 29.77 in 0.8 mi SW 8.1 mph 18.4 mph 0.03 in Snow Light Snow
7:37 PM 26.6 °F 21.2 °F 26.6 °F 100% 29.67 in 0.2 mi Variable 4.6 mph - 0.04 in Fog , Snow Snow
7:46 PM 26.6 °F 20.0 °F 26.6 °F 100% 29.67 in - Variable 5.8 mph - 0.05 in Snow Snow
7:53 PM 26.1 °F 20.5 °F 26.1 °F 100% 29.74 in 0.5 mi SW 4.6 mph - 0.05 in Fog , Snow Snow
8:53 PM 26.1 °F 17.6 °F 25.0 °F 96% 29.72 in 1.2 mi WSW 8.1 mph 16.1 mph 0.03 in Snow Light Snow
9:28 PM 26.6 °F 21.2 °F 24.8 °F 93% 29.63 in 0.8 mi Variable 4.6 mph - 0.01 in Snow Light Snow
9:49 PM 26.6 °F 22.6 °F 24.8 °F 93% 29.62 in 1.5 mi Variable 3.5 mph 16.1 mph 0.02 in Snow Light Snow
9:53 PM 26.1 °F 21.9 °F 25.0 °F 96% 29.70 in 2.5 mi West 3.5 mph 16.1 mph 0.02 in Snow Light Snow
10:04 PM 26.6 °F 22.6 °F 24.8 °F 93% 29.61 in - Variable 3.5 mph - 0.00 in Snow Light Snow
10:16 PM 26.6 °F 21.2 °F 24.8 °F 93% 29.60 in 0.8 mi Variable 4.6 mph - 0.01 in Snow Light Snow
10:46 PM 26.6 °F 17.5 °F 24.8 °F 93% 29.59 in 1.5 mi SW 9.2 mph 24.2 mph 0.01 in Snow Light Snow
10:53 PM 26.1 °F 18.4 °F 25.0 °F 96% 29.66 in 2.0 mi Variable 6.9 mph 20.7 mph 0.02 in Snow Light Snow
11:02 PM 24.8 °F 16.1 °F 24.8 °F 100% 29.59 in 5.0 mi WSW 8.1 mph 19.6 mph 0.00 in Snow Light Snow
11:44 PM 24.8 °F 17.9 °F 24.8 °F 100% 29.56 in 1.8 mi Variable 5.8 mph - 0.00 in Snow Light Snow
11:49 PM 24.8 °F 16.1 °F 24.8 °F 100% 29.56 in 0.8 mi SSW 8.1 mph - 0.01 in Snow Light Snow
11:53 PM 25.0 °F 16.3 °F 25.0 °F 100% 29.63 in 0.8 mi SW 8.1 mph - 0.02 in Snow Light Snow